Terminal Aerodrome Forecast
Issued by NWS Wilmington, OH

Current Version | Previous Version | Text Only | Print | Product List | Glossary Off
Versions: 1 2 3 4 5 6 7 8 9 10 11 12 13 14 15 16 17 18 19 20 21 22 23 24 25 26 27 28 29 30 31

000
FTUS41 KILN 041720
TAFCVG
TAF
KCVG 041720Z 0418/0524 23011G18KT 6SM -SHRA VCTS SCT025 OVC040CB
     FM042100 30012G17KT P6SM VCSH BKN015 OVC025
     FM050200 31011KT P6SM VCSH OVC015
     FM050800 33008KT P6SM VCSH OVC006
     FM051300 35010KT P6SM BKN025
     FM052100 36014KT P6SM SCT040=

USA.gov is the U.S. government's official web portal to all federal, state and local government web resources and services.